STARLINK-1095 (44971 NORAD) Tracking and Keplerian Element Data

This shows tracking and keplerian element data for the satellite.

Feedback or suggestion? Click here.




ElementValue
Catalog44971
NameSTARLINK-1095
Epoch Orbit652
Epoch Day48.41667824
Epoch Year2020
RAAN191.24
Inclination52.9956
Eccentricity0.0001693
Argument of Perigee47.7143
Mean Anonmoly50.6995
Mean Motion15.73178751
Decay Rate0.00347597
L11 44971U 20001BK 20048.41667824 .00347597 00000-0 23816-2 0 9997
L22 44971 52.9956 191.2400 0001693 47.7143 50.6995 15.73178751 6527

Live tracking and technical data element details for STARLINK-1095 (NORAD 44971). STARLINK-1095 can be tracked NOW for your location showing map with azimuth and elevation plus other details from your city location.

Track the satellite on the map from your city or location and see movement details for azimuth, elevation, latitude, longitude, range, height, and movement on the map or in text.







IsCatalogInMostPopularTable: catalog: 44971, numindb: 18
Update: records affected: 1



GetName: 44971 STARLINK-1095

Hit Count: updated at: Tue, 18 Feb 2020 01:17:13 GMT